This is the latest recevied weather packets stored in our database for station/object K0PFX-8. If no packets are shown the sender has not sent any weather packets the latest 10 day(s).
| Time | Temp. | Humidity | Pressure | Rain* | Wind** | Luminosity | Snow |
|---|---|---|---|---|---|---|---|
| 1777990768 | 10.56° C | 86% | 1010.7 hPa | 0.25 mm | 4.47 m/s, 53° | - | - |
| 1777989867 | 10° C | 98% | 1010.4 hPa | 0.25 mm | 1.34 m/s, 281° | - | - |
| 1777988968 | 10° C | 100% | 1010.6 hPa | 0.25 mm | 0.45 m/s, 359° | - | - |
| 1777988067 | 9.44° C | 100% | 1010.5 hPa | 5.08 mm | 2.24 m/s, 49° | - | - |
| 1777987168 | 9.44° C | 100% | 1010.5 hPa | 5.08 mm | 2.24 m/s, 359° | - | - |
| 1777986267 | 8.89° C | 100% | 1009.6 hPa | 5.08 mm | 3.58 m/s, 68° | - | - |
| 1777985370 | 8.89° C | 100% | 1011.3 hPa | 5.08 mm | 2.24 m/s, 325° | - | - |
| 1777984466 | 9.44° C | 100% | 1011.2 hPa | 0.51 mm | 2.24 m/s, 359° | - | - |
| 1777983568 | 9.44° C | 100% | 1010.7 hPa | 0.51 mm | 2.68 m/s, 125° | - | - |
| 1777982666 | 10° C | 85% | 1010.1 hPa | 0.51 mm | 4.02 m/s, 359° | - | - |
| 1777981768 | 11.11° C | 83% | 1010.7 hPa | 0.51 mm | 1.34 m/s, 333° | - | - |
| 1777980867 | 11.67° C | 86% | 1010.2 hPa | 0.51 mm | 1.34 m/s, 301° | - | - |
| 1777979968 | 11.67° C | 83% | 1009.5 hPa | 0.51 mm | 2.24 m/s, 274° | - | - |
| 1777979067 | 12.22° C | 82% | 1009.1 hPa | 0.51 mm | 3.13 m/s, 287° | - | - |
| 1777978169 | 12.22° C | 82% | 1009.1 hPa | 0.51 mm | 1.34 m/s, 359° | - | - |
| 1777977268 | 12.78° C | 81% | 1008.9 hPa | 0.25 mm | 0.89 m/s, 325° | - | - |
| 1777976370 | 13.33° C | 83% | 1008.9 hPa | 0.25 mm | 2.24 m/s, 359° | - | - |
| 1777975469 | 13.89° C | 85% | 1008.7 hPa | 0.25 mm | 3.13 m/s, 321° | - | - |
| 1777973669 | 15.56° C | 79% | 1008.2 hPa | 0 mm | 2.24 m/s, 357° | - | - |
| 1777972771 | 16.11° C | 79% | 1007.6 hPa | 0 mm | 2.68 m/s, 319° | - | - |
| 1777971870 | 16.11° C | 81% | 1007.3 hPa | 0 mm | 0 m/s | - | - |
| 1777970971 | 16.67° C | 81% | 1006.7 hPa | 0 mm | 0 m/s | - | - |
| 1777970070 | 17.22° C | 80% | 1006.5 hPa | 0 mm | 0 m/s | - | - |
| 1777969172 | 17.78° C | 73% | 1006.4 hPa | 0 mm | 0 m/s | - | - |
| 1777968271 | 18.33° C | 63% | 1006.6 hPa | 0 mm | 0 m/s | - | - |
* Rain latest hour (hover to see other rain measurements)
** Current wind speed in m/s (hover to see current wind gust speed)